Location: Unspecified
(0.0000°N, 0.0000°E)
Time: 22:36:19
(UTC+00:00)

deb r/b Ablestar - Visible Passes

Search period start: 05 June 2026 00:00
Search period end: 15 June 2026 00:00
Orbit: 929 x 1098 km, 66.8° (Epoch: 5 June)

Date Brightness Start Highest point End Pass type
(mag) Time Alt. Az. Time Alt. Az. Time Alt. Az.
5 Jun ? 20:41:01 10° NNE 20:41:47 13° NNE 20:41:47 13° NNE visible
6 Jun ? 21:16:53 10° NNW 21:18:30 18° NNW 21:18:30 18° NNW visible
7 Jun ? 20:07:39 10° NNE 20:09:48 17° NE 20:09:48 17° NE visible
7 Jun ? 21:54:37 10° NW 21:55:17 13° NW 21:55:17 13° NW visible
8 Jun ? 20:43:09 10° N 20:46:38 32° N 20:46:38 32° N visible
9 Jun ? 19:34:23 10° NNE 19:38:02 18° ENE 19:38:02 18° ENE visible
9 Jun ? 21:20:38 10° NW 21:23:33 25° NW 21:23:33 25° NW visible
10 Jun ? 20:09:28 10° N 20:15:01 49° NE 20:15:01 49° NE visible
11 Jun ? 19:01:16 10° NE 19:05:16 16° ENE 19:06:33 15° E visible
11 Jun ? 20:46:41 10° NW 20:52:02 46° WNW 20:52:02 46° WNW visible
12 Jun ? 19:35:49 10° N 19:42:29 48° ENE 19:43:38 44° E visible
12 Jun ? 21:26:10 10° WNW 21:29:09 17° W 21:29:09 17° W visible
13 Jun ? 18:28:23 10° NE 18:31:27 13° ENE 18:34:31 10° E visible
13 Jun ? 20:12:46 10° NNW 20:19:39 62° WSW 20:20:47 55° SSW visible
14 Jun ? 19:02:13 10° N 19:08:42 41° ENE 19:12:29 23° SE visible
14 Jun ? 20:51:47 10° WNW 20:56:51 21° WSW 20:58:00 20° WSW visible
